LILACSAT-1

Last updated on Sun Feb 24 2019 00:02:08 GMT+0000 (Coordinated Universal Time)

1 42725U 98067ME 19054.45786309 .00157352 20945-4 38202-3 0 9996 2 42725 51.6325 138.9885 0003873 16.7130 67.9867 15.95961760100211

Satellite not in orbit